Location: Friaudour
(46.0460°N, 1.2873°E)
Time: 20:47:25
(UTC+00:00)

PSLV R/B - Pass Details

Date: 14 July 2020
Orbit: 595 x 628 km, 97.9° (Epoch: 14 August)

Event Time Altitude Azimuth Distance (km) Brightness Sun altitude
Rises 03:39:10 0° 16° (NNE) 2,892 8.1 -6.2°
Reaches altitude 10° 03:41:23 10° 21° (NNE) 1,987 7.3 -5.9°
Maximum altitude 03:45:39 59° 101° (E) 722 4.2 -5.4°
Drops below altitude 10° 03:49:55 10° 181° (S) 1,989 5.8 -4.8°
Sets 03:52:08 0° 185° (S) 2,894 6.6 -4.5°
